Orbital Elements
Epoch 2016 June 21.0 TT = JDT 2457560.5
T 2016 July 1.79335 TT Rudenko
q 2.5446402 (2000.0) P Q
n 0.12079798 Peri. 310.51279 +0.97274964 +0.22732437
a 4.0528724 Node 36.41472 -0.18261524 +0.87242542
e 0.3721391 Incl. 4.40813 -0.14286289 +0.43266328
P 8.16
From 219 observations 2000 Sept. 23-2017 Jan. 1, mean residual 0".7.
|